SCP
0 1 0 0 0 0 0 0 0 0 0 0 0 0 0 1 1 1 0 0 0 0 1 0 0 1 1 0 0 0 0 1 0 1 0 0 0 0 0 0 0 0 0
1 1 0 0 0 0 0 0 0 0 0 0 0 0 0 0 0 0 1 0 0 0 0 0 0 0 0 0 0 0 0 0 0 0 0 0 0 0 0 0 0 0 0
1 1 0 0 0 0 0 0 0 0 0 0 0 0 0 0 0 0 0 0 0 0 0 0 0 0 0 0 0 0 0 0 0 0 0 0 0 0 0 0 0 0 0
0 0 0 0 0 0 0 0 0 0 0 0 0 0 0 0 0 0 0 0 0 0 0 0 0 0 0 0 0 0 0 0 0 0 0 0 0 0 0 0 0 0 0
0 0 0 0 0 0 0 0 0 0 0 0 0 0 0 0 0 0 0 0 0 0 0 0 0 0 0 0 0 0 0 -0 0 0 0 0 0 0 0 0 0 0 0
0 0 0 0 0 0 0 0 0 0 0 0 0 0 0 0 0 0 0 0 0 0 0 0 0 0 0 0 0 0 0 0 0 0 0 0 0 0 0 0 0 0 0
0 0 0 0 0 0 0 0 0 0 0 0 0 0 0 0 0 0 0 0 0 0 0 0 0 0 -0 -0 0 0 0 0 0 0 0 0 0 0 0 0 0 0 0
0 0 0 0 0 0 0 0 0 0 0 0 0 0 0 0 0 0 0 0 0 0 0 -0 -0 0 -0 0 -0 0 0 0 0 0 0 0 0 0 0 0 0 0 0
0 0 0 0 0 0 0 0 0 0 0 0 0 0 0 0 0 0 0 0 0 0 -0 0 -0 -0 0 -0 -0 0 0 0 0 0 0 0 0 0 0 0 0 0 0
0 0 0 0 0 0 0 0 0 0 0 0 0 0 0 0 0 0 0 0 0 0 0 0 -0 -0 -0 0 -0 0 -0 -0 0 0 0 0 0 0 0 0 0 0 0
0 0 0 0 0 0 0 0 0 0 0 0 0 0 0 0 0 0 0 0 0 0 0 -0 0 0 -0 -0 -0 0 0 0 0 0 -0 0 0 0 0 0 0 0 0
0 0 0 0 0 0 0 0 0 0 0 0 0 0 0 0 0 0 0 0 0 0 0 0 0 0 0 0 0 0 0 0 -0 0 0 0 0 0 -0 0 -0 -0 -0
0 0 0 0 0 0 0 0 0 0 0 0 0 0 0 0 0 0 0 0 0 0 0 0 0 0 0 0 0 0 0 0 -0 0 0 0 0 -0 -0 -0 -0 -0 -0
0 0 0 0 0 0 0 0 0 0 0 0 0 0 0 0 0 0 0 0 0 0 0 0 0 0 0 0 0 0 0 0 0 -0 0 -0 -0 -0 -0 -0 -0 -0 -0
0 0 0 0 0 0 0 0 0 0 0 0 0 0 0 0 0 0 0 0 0 0 0 0 0 0 0 0 0 0 0 0 0 0 0 0 -0 -0 -0 0 -0 -0 -0
0 0 0 0 0 0 0 0 0 0 0 0 0 0 0 0 0 0 0 -0 0 0 0 0 0 0 0 0 0 0 0 0 0 0 0 0 0 -0 -0 -0 -0 -0 -0
0 0 0 0 0 0 0 0 0 0 0 0 0 0 0 0 0 0 0 -0 0 0 0 0 0 0 0 0 0 0 0 0 0 0 0 0 0 0 0 -0 -0 -0 -0
0 0 0 0 0 0 0 0 0 0 0 0 0 0 0 0 0 0 0 0 0 0 0 0 0 0 0 0 0 0 0 0 0 0 0 0 0 0 0 -0 -0 -0 -0
0 0 0 0 0 0 0 0 0 0 0 0 0 0 0 0 0 0 0 0 0 0 0 0 0 0 0 0 0 0 0 0 0 0 0 0 0 0 0 0 0 -0 -0
0 0 0 0 0 0 0 0 0 0 0 0 0 0 0 0 0 0 0 0 0 0 0 0 0 0 0 0 0 0 0 0 0 0 0 0 0 0 0 0 0 0 0
0 0 0 0 0 0 0 0 0 0 0 0 0 0 0 0 0 0 0 0 0 0 0 0 0 0 0 0 0 0 0 0 0 0 0 0 0 0 0 0 0 0 0
0 0 0 0 0 0 0 0 0 0 0 0 0 0 0 0 0 0 0 0 0 0 0 0 0 0 0 0 0 -0 0 -0 0 0 0 0 -0 0 0 0 0 0 0
0 0 0 0 0 0 0 0 0 0 0 0 0 0 0 0 0 0 0 0 0 0 0 0 0 0 0 0 0 0 0 0 0 0 0 0 -0 -0 0 0 0 0 0
0 0 0 0 0 0 0 0 0 0 0 0 0 0 0 0 0 0 0 0 0 0 0 0 0 0 0 0 0 0 0 0 0 0 0 0 0 0 0 0 0 0 0
0 0 0 0 0 0 0 0 0 0 0 0 0 0 0 0 0 0 0 0 0 0 0 0 0 0 0 0 0 0 0 0 0 0 0 0 0 0 0 0 0 0 0
0 0 0 0 0 0 0 0 0 0 0 0 0 0 0 0 0 0 0 0 0 0 0 0 0 0 0 0 0 0 0 0 0 0 -0 0 0 0 0 0 0 0 0
Wind_Speed_500mb
24 21 22 22 25 29 30 32 32 36 36 35 36 35 33 24 29 27 26 29 31 32 31 25 30 31 33 33 33 28 32 34 34 30 39 44 45 48 52 37 29 38 34
22 22 22 23 27 30 31 34 36 40 41 35 36 33 29 26 27 34 32 34 34 30 27 31 27 36 30 29 26 26 31 31 30 32 34 40 38 11 10 17 14 30 31
25 23 23 24 27 31 34 36 37 38 43 39 37 36 30 26 27 28 32 35 34 31 29 29 29 28 26 24 32 30 29 29 29 28 23 23 24 23 27 19 18 28 28
25 22 22 26 30 32 30 34 37 40 41 46 42 41 37 36 34 31 31 28 26 27 28 28 29 28 23 26 25 23 24 25 27 26 24 27 23 25 23 23 24 24 26
21 21 23 26 31 31 31 30 33 36 41 42 44 43 41 34 31 30 29 28 27 27 30 32 31 31 26 30 29 27 25 19 20 23 25 23 25 25 23 27 23 22 24
18 20 24 27 29 29 29 29 32 36 41 43 44 43 39 36 35 36 33 31 29 29 36 36 35 31 33 31 32 29 24 28 25 24 24 22 26 24 28 29 26 24 23
20 23 26 31 29 28 29 30 33 36 40 42 43 41 38 35 34 34 33 31 31 33 40 36 32 30 34 33 32 26 27 24 27 29 27 26 24 24 23 24 24 23 23
20 23 25 28 29 27 29 30 34 31 45 43 41 35 32 29 28 32 30 31 32 32 36 34 35 40 38 38 37 34 35 32 33 35 34 30 29 26 20 20 22 23 20
14 21 25 25 26 28 24 30 33 38 35 38 35 30 33 36 34 32 35 32 33 34 34 38 40 42 44 42 38 33 32 32 34 34 29 26 27 20 15 17 17 14 13
12 21 23 25 26 26 25 26 30 30 33 35 29 36 31 31 33 30 33 36 34 32 39 38 38 45 37 38 36 33 31 34 36 40 40 28 19 17 17 14 16 15 14
17 21 22 23 24 25 24 26 29 31 33 32 25 33 33 32 30 31 33 33 32 35 34 38 43 34 38 39 38 37 35 37 42 38 38 15 12 10 4 9 9 15 11
15 20 22 22 23 24 23 25 28 29 32 28 26 29 32 27 29 35 33 34 34 33 36 44 40 34 38 36 42 39 39 39 39 43 39 25 13 10 13 10 7 9 7
14 18 22 22 22 21 21 23 26 28 29 24 24 32 32 27 31 29 33 33 32 34 38 38 45 33 37 36 38 38 40 37 38 38 33 24 17 12 18 14 4 11 10
12 18 18 19 20 19 19 21 24 26 26 22 24 25 29 29 30 29 32 37 33 32 41 42 39 33 36 37 35 38 39 37 34 33 29 28 25 24 21 19 6 9 11
12 15 14 16 18 18 18 20 21 22 24 22 22 23 29 25 28 31 29 34 32 28 34 36 33 35 35 36 35 34 38 36 35 30 27 31 30 28 22 24 17 15 16
10 12 11 12 16 18 18 19 19 19 22 21 20 21 22 29 28 31 30 31 37 26 33 42 38 33 34 33 30 33 35 39 43 40 32 26 22 27 25 20 16 17 21
7 9 8 9 12 16 17 18 16 18 20 18 18 20 21 21 26 28 28 28 35 30 31 40 38 33 36 33 33 36 37 36 39 40 45 39 31 28 27 24 21 21 21
7 5 5 4 8 13 16 16 14 18 18 16 17 19 19 20 21 25 26 27 28 26 29 35 31 32 35 38 46 46 43 42 36 41 41 49 49 41 39 35 29 28 19
3 4 3 4 7 12 13 15 14 17 17 15 16 16 17 19 21 22 25 23 22 24 28 33 31 28 31 35 41 33 34 44 46 46 42 30 32 28 22 22 33 34 43
3 3 4 4 5 9 11 15 14 17 15 13 14 15 16 17 20 23 22 21 20 21 16 23 27 25 27 30 32 29 25 27 23 33 32 38 35 22 23 25 30 38 37
5 5 5 2 2 6 10 14 14 15 15 12 13 14 15 16 18 20 21 22 20 15 13 16 22 23 21 23 24 20 19 19 22 25 26 28 35 32 33 33 21 24 17
3 4 3 3 2 3 9 12 12 12 14 12 13 13 15 16 16 19 20 15 22 18 16 15 12 13 19 17 18 18 18 17 20 19 20 20 24 30 32 24 21 15 17
6 5 5 6 4 4 7 10 10 10 12 13 13 13 15 17 17 17 19 21 17 18 20 14 11 6 9 11 17 19 17 19 22 22 23 18 14 16 17 20 24 20 16
6 6 5 7 7 7 7 9 9 9 9 12 14 14 17 22 19 19 17 19 20 18 17 16 14 12 9 10 17 18 24 26 24 27 22 26 18 11 5 9 14 13 8
8 8 7 8 7 8 8 10 10 10 10 12 14 15 16 16 23 19 19 20 20 26 19 15 13 14 19 13 16 19 21 22 25 28 24 24 18 8 4 7 2 13 12
10 9 8 8 8 9 10 11 11 10 12 12 16 17 16 17 20 22 22 29 27 31 28 19 15 15 19 16 21 25 25 29 27 27 25 25 19 9 5 4 8 2 5
Wind_Direction_500mb
65 56 49 37 37 42 34 26 15 14 16 358 358 354 345 348 348 349 348 343 347 347 344 340 337 323 327 324 315 314 309 304 296 292 295 290 288 285 268 251 269 284 286
76 61 47 47 41 35 29 22 18 12 14 14 5 360 351 345 350 353 342 342 325 324 337 332 331 314 314 318 316 319 309 297 297 302 291 295 293 315 272 285 257 272 277
65 64 58 45 34 28 24 18 19 22 17 28 7 5 3 353 344 339 334 342 340 344 345 346 339 336 337 322 318 321 311 301 295 303 296 294 285 311 299 293 264 265 278
72 64 47 33 26 19 14 15 20 21 15 10 8 10 2 354 351 344 341 354 353 357 359 354 351 349 354 324 314 310 318 303 299 299 280 272 288 296 296 285 281 273 279
62 47 32 21 12 13 11 13 15 15 12 9 6 5 359 358 355 4 2 3 360 2 354 352 348 348 344 336 339 340 323 323 302 298 293 289 285 283 274 291 296 284 281
60 40 20 14 8 7 9 7 10 9 7 5 4 2 3 5 4 9 5 2 355 351 360 349 352 350 341 342 337 330 325 320 322 315 307 300 297 300 293 288 290 294 298
43 21 14 9 8 7 6 6 4 4 4 2 1 3 9 8 5 3 356 3 352 349 347 354 352 354 351 344 327 321 318 311 308 312 310 305 295 287 293 286 288 294 300
24 14 15 6 5 4 4 3 1 4 354 359 1 4 4 5 359 354 357 352 352 349 342 354 349 344 341 340 330 337 328 316 311 309 303 303 297 294 287 291 296 304 309
23 13 11 6 2 1 4 1 0 355 6 0 3 2 3 3 357 4 0 353 353 350 345 341 343 346 341 336 340 339 343 339 331 323 315 310 295 282 291 289 295 298 316
23 15 12 8 2 1 0 1 1 6 2 1 2 354 4 6 2 3 359 356 347 354 351 1 353 348 359 358 359 350 341 349 342 337 327 315 304 279 279 289 295 307 300
20 17 15 7 5 3 4 2 2 358 359 3 356 1 1 7 4 3 6 1 5 357 2 2 2 356 6 5 4 9 2 354 3 1 352 314 314 314 275 325 324 317 315
17 15 14 8 7 6 7 5 3 3 3 10 359 11 5 4 4 8 10 5 5 3 360 7 1 355 12 11 15 8 5 3 5 16 17 23 27 74 354 338 4 346 1
22 16 9 12 9 8 8 7 4 7 5 11 4 4 7 3 4 5 2 6 4 0 8 3 359 7 16 20 16 13 9 12 19 19 33 40 27 10 350 346 2 36 52
27 21 9 13 11 9 7 8 5 9 7 10 8 8 4 12 0 1 1 1 10 7 9 9 11 15 16 22 21 20 23 19 19 25 37 36 36 32 39 23 66 52 64
19 19 14 11 11 9 9 4 2 5 9 8 10 11 360 14 359 8 3 358 11 9 11 13 19 20 17 19 25 27 27 24 25 33 42 44 40 44 57 59 77 67 61
25 19 17 13 12 10 7 2 359 4 6 7 7 6 4 357 5 15 10 11 13 13 10 24 26 21 20 20 31 32 29 33 41 45 44 38 39 37 46 53 62 56 68
28 22 26 16 12 11 7 2 358 1 2 3 3 7 2 4 360 10 9 9 16 13 8 27 23 20 26 30 37 40 39 36 44 52 44 39 53 63 56 56 58 64 70
21 34 33 31 25 11 9 1 1 1 358 3 5 6 15 7 6 5 11 3 18 16 6 35 22 20 35 52 59 53 54 49 48 57 49 50 60 61 59 47 48 48 40
69 79 87 77 46 18 13 2 4 357 2 10 13 10 15 11 8 10 9 7 12 28 8 33 19 28 59 75 74 67 39 46 54 54 54 45 37 46 47 48 46 58 56
115 134 139 95 42 20 20 6 6 357 3 6 10 7 8 12 7 5 7 8 7 32 20 30 25 39 63 76 76 66 57 50 35 29 39 37 38 36 33 37 55 72 68
155 148 147 170 62 22 19 7 1 359 359 1 1 358 356 360 352 358 359 4 359 24 9 30 33 25 62 69 73 68 47 51 33 36 30 23 38 51 62 70 74 70 84
181 168 193 220 224 358 3 360 356 358 355 356 354 355 353 352 340 349 354 352 11 3 2 16 55 359 24 54 63 64 58 51 34 22 10 20 39 55 72 72 71 51 87
200 207 223 232 233 284 344 356 346 350 354 356 351 350 341 340 345 336 348 355 341 350 350 348 345 2 325 346 6 7 15 22 14 10 7 18 26 42 53 65 70 67 55
212 221 216 226 250 267 301 326 335 329 342 348 346 338 331 353 352 347 338 336 338 335 329 325 330 322 294 302 319 321 334 337 346 326 342 341 353 56 89 36 38 26 20
212 213 232 246 248 257 278 294 309 314 322 320 329 328 333 323 331 333 327 330 328 329 310 299 292 329 310 284 291 302 308 307 319 328 340 329 344 18 98 78 338 68 71
218 222 231 251 261 265 271 281 288 299 304 317 321 311 328 322 324 321 319 328 327 332 338 312 300 275 282 271 286 306 305 309 315 319 322 324 333 358 55 122 78 203 52
Wind_Speed_850mb
24 21 22 22 25 29 30 32 32 36 36 35 36 35 33 24 29 27 26 29 31 32 31 25 30 31 33 33 33 28 32 34 34 30 39 44 45 48 52 37 29 38 34
22 22 22 23 27 30 31 34 36 40 41 35 36 33 29 26 27 34 32 34 34 30 27 31 27 36 30 29 26 26 31 31 30 32 34 40 38 11 10 17 14 30 31
25 23 23 24 27 31 34 36 37 38 43 39 37 36 30 26 27 28 32 35 34 31 29 29 29 28 26 24 32 30 29 29 29 28 23 23 24 23 27 19 18 28 28
25 22 22 26 30 32 30 34 37 40 41 46 42 41 37 36 34 31 31 28 26 27 28 28 29 28 23 26 25 23 24 25 27 26 24 27 23 25 23 23 24 24 26
21 21 23 26 31 31 31 30 33 36 41 42 44 43 41 34 31 30 29 28 27 27 30 32 31 31 26 30 29 27 25 19 20 23 25 23 25 25 23 27 23 22 24
18 20 24 27 29 29 29 29 32 36 41 43 44 43 39 36 35 36 33 31 29 29 36 36 35 31 33 31 32 29 24 28 25 24 24 22 26 24 28 29 26 24 23
20 23 26 31 29 28 29 30 33 36 40 42 43 41 38 35 34 34 33 31 31 33 40 36 32 30 34 33 32 26 27 24 27 29 27 26 24 24 23 24 24 23 23
20 23 25 28 29 27 29 30 34 31 45 43 41 35 32 29 28 32 30 31 32 32 36 34 35 40 38 38 37 34 35 32 33 35 34 30 29 26 20 20 22 23 20
14 21 25 25 26 28 24 30 33 38 35 38 35 30 33 36 34 32 35 32 33 34 34 38 40 42 44 42 38 33 32 32 34 34 29 26 27 20 15 17 17 14 13
12 21 23 25 26 26 25 26 30 30 33 35 29 36 31 31 33 30 33 36 34 32 39 38 38 45 37 38 36 33 31 34 36 40 40 28 19 17 17 14 16 15 14
17 21 22 23 24 25 24 26 29 31 33 32 25 33 33 32 30 31 33 33 32 35 34 38 43 34 38 39 38 37 35 37 42 38 38 15 12 10 4 9 9 15 11
15 20 22 22 23 24 23 25 28 29 32 28 26 29 32 27 29 35 33 34 34 33 36 44 40 34 38 36 42 39 39 39 39 43 39 25 13 10 13 10 7 9 7
14 18 22 22 22 21 21 23 26 28 29 24 24 32 32 27 31 29 33 33 32 34 38 38 45 33 37 36 38 38 40 37 38 38 33 24 17 12 18 14 4 11 10
12 18 18 19 20 19 19 21 24 26 26 22 24 25 29 29 30 29 32 37 33 32 41 42 39 33 36 37 35 38 39 37 34 33 29 28 25 24 21 19 6 9 11
12 15 14 16 18 18 18 20 21 22 24 22 22 23 29 25 28 31 29 34 32 28 34 36 33 35 35 36 35 34 38 36 35 30 27 31 30 28 22 24 17 15 16
10 12 11 12 16 18 18 19 19 19 22 21 20 21 22 29 28 31 30 31 37 26 33 42 38 33 34 33 30 33 35 39 43 40 32 26 22 27 25 20 16 17 21
7 9 8 9 12 16 17 18 16 18 20 18 18 20 21 21 26 28 28 28 35 30 31 40 38 33 36 33 33 36 37 36 39 40 45 39 31 28 27 24 21 21 21
7 5 5 4 8 13 16 16 14 18 18 16 17 19 19 20 21 25 26 27 28 26 29 35 31 32 35 38 46 46 43 42 36 41 41 49 49 41 39 35 29 28 19
3 4 3 4 7 12 13 15 14 17 17 15 16 16 17 19 21 22 25 23 22 24 28 33 31 28 31 35 41 33 34 44 46 46 42 30 32 28 22 22 33 34 43
3 3 4 4 5 9 11 15 14 17 15 13 14 15 16 17 20 23 22 21 20 21 16 23 27 25 27 30 32 29 25 27 23 33 32 38 35 22 23 25 30 38 37
5 5 5 2 2 6 10 14 14 15 15 12 13 14 15 16 18 20 21 22 20 15 13 16 22 23 21 23 24 20 19 19 22 25 26 28 35 32 33 33 21 24 17
3 4 3 3 2 3 9 12 12 12 14 12 13 13 15 16 16 19 20 15 22 18 16 15 12 13 19 17 18 18 18 17 20 19 20 20 24 30 32 24 21 15 17
6 5 5 6 4 4 7 10 10 10 12 13 13 13 15 17 17 17 19 21 17 18 20 14 11 6 9 11 17 19 17 19 22 22 23 18 14 16 17 20 24 20 16
6 6 5 7 7 7 7 9 9 9 9 12 14 14 17 22 19 19 17 19 20 18 17 16 14 12 9 10 17 18 24 26 24 27 22 26 18 11 5 9 14 13 8
8 8 7 8 7 8 8 10 10 10 10 12 14 15 16 16 23 19 19 20 20 26 19 15 13 14 19 13 16 19 21 22 25 28 24 24 18 8 4 7 2 13 12
10 9 8 8 8 9 10 11 11 10 12 12 16 17 16 17 20 22 22 29 27 31 28 19 15 15 19 16 21 25 25 29 27 27 25 25 19 9 5 4 8 2 5
Wind_Direction_850mb
65 56 49 37 37 42 34 26 15 14 16 358 358 354 345 348 348 349 348 343 347 347 344 340 337 323 327 324 315 314 309 304 296 292 295 290 288 285 268 251 269 284 286
76 61 47 47 41 35 29 22 18 12 14 14 5 360 351 345 350 353 342 342 325 324 337 332 331 314 314 318 316 319 309 297 297 302 291 295 293 315 272 285 257 272 277
65 64 58 45 34 28 24 18 19 22 17 28 7 5 3 353 344 339 334 342 340 344 345 346 339 336 337 322 318 321 311 301 295 303 296 294 285 311 299 293 264 265 278
72 64 47 33 26 19 14 15 20 21 15 10 8 10 2 354 351 344 341 354 353 357 359 354 351 349 354 324 314 310 318 303 299 299 280 272 288 296 296 285 281 273 279
62 47 32 21 12 13 11 13 15 15 12 9 6 5 359 358 355 4 2 3 360 2 354 352 348 348 344 336 339 340 323 323 302 298 293 289 285 283 274 291 296 284 281
60 40 20 14 8 7 9 7 10 9 7 5 4 2 3 5 4 9 5 2 355 351 360 349 352 350 341 342 337 330 325 320 322 315 307 300 297 300 293 288 290 294 298
43 21 14 9 8 7 6 6 4 4 4 2 1 3 9 8 5 3 356 3 352 349 347 354 352 354 351 344 327 321 318 311 308 312 310 305 295 287 293 286 288 294 300
24 14 15 6 5 4 4 3 1 4 354 359 1 4 4 5 359 354 357 352 352 349 342 354 349 344 341 340 330 337 328 316 311 309 303 303 297 294 287 291 296 304 309
23 13 11 6 2 1 4 1 0 355 6 0 3 2 3 3 357 4 0 353 353 350 345 341 343 346 341 336 340 339 343 339 331 323 315 310 295 282 291 289 295 298 316
23 15 12 8 2 1 0 1 1 6 2 1 2 354 4 6 2 3 359 356 347 354 351 1 353 348 359 358 359 350 341 349 342 337 327 315 304 279 279 289 295 307 300
20 17 15 7 5 3 4 2 2 358 359 3 356 1 1 7 4 3 6 1 5 357 2 2 2 356 6 5 4 9 2 354 3 1 352 314 314 314 275 325 324 317 315
17 15 14 8 7 6 7 5 3 3 3 10 359 11 5 4 4 8 10 5 5 3 360 7 1 355 12 11 15 8 5 3 5 16 17 23 27 74 354 338 4 346 1
22 16 9 12 9 8 8 7 4 7 5 11 4 4 7 3 4 5 2 6 4 0 8 3 359 7 16 20 16 13 9 12 19 19 33 40 27 10 350 346 2 36 52
27 21 9 13 11 9 7 8 5 9 7 10 8 8 4 12 0 1 1 1 10 7 9 9 11 15 16 22 21 20 23 19 19 25 37 36 36 32 39 23 66 52 64
19 19 14 11 11 9 9 4 2 5 9 8 10 11 360 14 359 8 3 358 11 9 11 13 19 20 17 19 25 27 27 24 25 33 42 44 40 44 57 59 77 67 61
25 19 17 13 12 10 7 2 359 4 6 7 7 6 4 357 5 15 10 11 13 13 10 24 26 21 20 20 31 32 29 33 41 45 44 38 39 37 46 53 62 56 68
28 22 26 16 12 11 7 2 358 1 2 3 3 7 2 4 360 10 9 9 16 13 8 27 23 20 26 30 37 40 39 36 44 52 44 39 53 63 56 56 58 64 70
21 34 33 31 25 11 9 1 1 1 358 3 5 6 15 7 6 5 11 3 18 16 6 35 22 20 35 52 59 53 54 49 48 57 49 50 60 61 59 47 48 48 40
69 79 87 77 46 18 13 2 4 357 2 10 13 10 15 11 8 10 9 7 12 28 8 33 19 28 59 75 74 67 39 46 54 54 54 45 37 46 47 48 46 58 56
115 134 139 95 42 20 20 6 6 357 3 6 10 7 8 12 7 5 7 8 7 32 20 30 25 39 63 76 76 66 57 50 35 29 39 37 38 36 33 37 55 72 68
155 148 147 170 62 22 19 7 1 359 359 1 1 358 356 360 352 358 359 4 359 24 9 30 33 25 62 69 73 68 47 51 33 36 30 23 38 51 62 70 74 70 84
181 168 193 220 224 358 3 360 356 358 355 356 354 355 353 352 340 349 354 352 11 3 2 16 55 359 24 54 63 64 58 51 34 22 10 20 39 55 72 72 71 51 87
200 207 223 232 233 284 344 356 346 350 354 356 351 350 341 340 345 336 348 355 341 350 350 348 345 2 325 346 6 7 15 22 14 10 7 18 26 42 53 65 70 67 55
212 221 216 226 250 267 301 326 335 329 342 348 346 338 331 353 352 347 338 336 338 335 329 325 330 322 294 302 319 321 334 337 346 326 342 341 353 56 89 36 38 26 20
212 213 232 246 248 257 278 294 309 314 322 320 329 328 333 323 331 333 327 330 328 329 310 299 292 329 310 284 291 302 308 307 319 328 340 329 344 18 98 78 338 68 71
218 222 231 251 261 265 271 281 288 299 304 317 321 311 328 322 324 321 319 328 327 332 338 312 300 275 282 271 286 306 305 309 315 319 322 324 333 358 55 122 78 203 52